Location: Newark
(35.6799°N, 139.7636°E)
Time: 19:32:29
(UTC+00:00)

Vanguard 3 - Pass Details

Date: 23 December 2019
Orbit: 507 x 3263 km, 33.4° (Epoch: 23 January)

Event Time Altitude Azimuth Distance (km) Brightness Sun altitude
Exits shadow 20:07:01 38° 243° (WSW) 956 7.1 -19.8°
Maximum altitude 20:08:34 67° 174° (S) 738 6.9 -19.5°
Drops below altitude 10° 20:14:32 10° 93° (E) 2,726 11.0 -18.3°
Sets 20:17:58 0° 91° (E) 4,088 12.2 -17.7°
